Time,TemperatureF,DewpointF,PressureIn,WindDirection,WindDirectionDegrees,WindSpeedMPH,WindSpeedGustMPH,Humidity,HourlyPrecipIn,Conditions,Clouds,dailyrainin,SoftwareType,DateUTC
2013-08-23 00:05:00,71.5,62.8,29.86,SSW,211,7.0,15.0,74,0.00,,,0.00,Wunderground v.1.15,2013-08-23 03:05:00,
2013-08-23 00:10:00,71.4,63.1,29.89,South,181,7.0,15.0,75,0.00,,,0.00,Wunderground v.1.15,2013-08-23 03:10:00,
2013-08-23 00:15:00,71.4,63.1,29.89,WSW,239,7.0,15.0,75,0.00,,,0.00,Wunderground v.1.15,2013-08-23 03:15:00,
2013-08-23 00:20:00,71.2,62.9,29.88,SSW,198,7.0,7.0,75,0.00,,,0.00,Wunderground v.1.15,2013-08-23 03:20:00,
2013-08-23 00:25:00,71.0,63.1,29.88,South,188,6.0,15.0,76,0.00,,,0.00,Wunderground v.1.15,2013-08-23 03:25:00,
2013-08-23 00:30:00,70.9,63.0,29.88,SSE,167,6.0,15.0,76,0.00,,,0.00,Wunderground v.1.15,2013-08-23 03:30:00,
2013-08-23 00:40:00,70.6,63.0,29.88,SE,146,5.0,15.0,77,0.00,,,0.00,Wunderground v.1.15,2013-08-23 03:40:00,
2013-08-23 00:45:00,70.3,63.1,29.88,SSW,193,4.0,15.0,78,0.00,,,0.00,Wunderground v.1.15,2013-08-23 03:45:00,
2013-08-23 00:50:00,70.1,62.9,29.88,South,191,4.0,4.0,78,0.00,,,0.00,Wunderground v.1.15,2013-08-23 03:50:00,
2013-08-23 00:55:00,70.0,62.8,29.88,SE,140,4.0,15.0,78,0.00,,,0.00,Wunderground v.1.15,2013-08-23 03:55:00,
2013-08-23 01:00:00,70.0,63.2,29.88,SSW,194,4.0,15.0,79,0.00,,,0.00,Wunderground v.1.15,2013-08-23 04:00:00,
2013-08-23 01:05:00,70.1,62.9,29.87,South,186,5.0,15.0,78,0.00,,,0.00,Wunderground v.1.15,2013-08-23 04:05:00,
2013-08-23 01:10:00,70.1,62.9,29.87,South,184,5.0,15.0,78,0.00,,,0.00,Wunderground v.1.15,2013-08-23 04:10:00,
2013-08-23 01:15:00,70.1,62.9,29.87,SSW,204,5.0,15.0,78,0.00,,,0.00,Wunderground v.1.15,2013-08-23 04:15:00,
2013-08-23 01:20:00,70.1,62.9,29.87,SSW,193,5.0,5.0,78,0.00,,,0.00,Wunderground v.1.15,2013-08-23 04:20:00,
2013-08-23 01:25:00,70.1,62.9,29.87,SSW,203,6.0,8.0,78,0.00,,,0.00,Wunderground v.1.15,2013-08-23 04:25:00,
2013-08-23 01:30:00,70.3,63.1,29.87,SSW,195,7.0,15.0,78,0.00,,,0.00,Wunderground v.1.15,2013-08-23 04:30:00,
2013-08-23 01:35:00,70.2,63.4,29.84,South,185,6.0,15.0,79,0.00,,,0.00,Wunderground v.1.15,2013-08-23 04:35:00,
2013-08-23 01:45:00,69.7,63.6,29.86,SE,134,3.0,15.0,81,0.00,,,0.00,Wunderground v.1.15,2013-08-23 04:45:00,
2013-08-23 01:50:00,69.3,63.9,29.83,SSE,157,2.0,15.0,83,0.00,,,0.00,Wunderground v.1.15,2013-08-23 04:50:00,
2013-08-23 01:55:00,69.1,64.1,29.85,South,186,2.0,15.0,84,0.00,,,0.00,Wunderground v.1.15,2013-08-23 04:55:00,
2013-08-23 02:00:00,68.9,64.2,29.85,South,174,3.0,3.0,85,0.00,,,0.00,Wunderground v.1.15,2013-08-23 05:00:00,
2013-08-23 02:05:00,68.8,64.1,29.85,SE,132,3.0,15.0,85,0.00,,,0.00,Wunderground v.1.15,2013-08-23 05:05:00,
2013-08-23 02:15:00,68.6,64.2,29.85,SE,146,3.0,4.0,86,0.00,,,0.00,Wunderground v.1.15,2013-08-23 05:15:00,
2013-08-23 02:20:00,68.5,64.1,29.84,SSE,162,3.0,15.0,86,0.00,,,0.00,Wunderground v.1.15,2013-08-23 05:20:00,
2013-08-23 02:25:00,68.4,64.0,29.84,South,171,3.0,15.0,86,0.00,,,0.00,Wunderground v.1.15,2013-08-23 05:25:00,
2013-08-23 02:30:00,68.3,64.3,29.84,SE,143,3.0,15.0,87,0.00,,,0.00,Wunderground v.1.15,2013-08-23 05:30:00,
2013-08-23 02:35:00,68.3,64.3,29.84,South,184,3.0,15.0,87,0.00,,,0.00,Wunderground v.1.15,2013-08-23 05:35:00,
2013-08-23 02:40:00,68.5,64.1,29.81,ESE,116,4.0,15.0,86,0.00,,,0.00,Wunderground v.1.15,2013-08-23 05:40:00,
2013-08-23 02:50:00,68.5,64.5,29.84,SSW,198,4.0,15.0,87,0.00,,,0.00,Wunderground v.1.15,2013-08-23 05:50:00,
2013-08-23 02:55:00,68.5,64.5,29.84,SSE,168,5.0,15.0,87,0.00,,,0.00,Wunderground v.1.15,2013-08-23 05:55:00,
2013-08-23 03:00:00,68.4,64.4,29.84,South,183,4.0,4.0,87,0.00,,,0.00,Wunderground v.1.15,2013-08-23 06:00:00,
2013-08-23 03:05:00,68.3,64.6,29.84,SSE,158,4.0,15.0,88,0.00,,,0.00,Wunderground v.1.15,2013-08-23 06:05:00,
2013-08-23 03:10:00,68.2,64.5,29.83,SSE,160,4.0,4.0,88,0.00,,,0.00,Wunderground v.1.15,2013-08-23 06:10:00,
2013-08-23 03:15:00,68.1,64.4,29.80,SSW,197,4.0,5.0,88,0.00,,,0.00,Wunderground v.1.15,2013-08-23 06:15:00,
2013-08-23 03:20:00,68.1,64.4,29.83,SSW,195,4.0,15.0,88,0.00,,,0.00,Wunderground v.1.15,2013-08-23 06:20:00,
2013-08-23 03:25:00,68.1,64.4,29.83,SSW,201,5.0,15.0,88,0.00,,,0.00,Wunderground v.1.15,2013-08-23 06:25:00,
2013-08-23 03:30:00,68.1,64.4,29.83,SE,136,5.0,15.0,88,0.00,,,0.00,Wunderground v.1.15,2013-08-23 06:30:00,
2013-08-23 03:35:00,68.2,64.2,29.83,South,183,5.0,15.0,87,0.00,,,0.00,Wunderground v.1.15,2013-08-23 06:35:00,
2013-08-23 03:40:00,68.3,64.3,29.83,South,184,5.0,15.0,87,0.00,,,0.00,Wunderground v.1.15,2013-08-23 06:40:00,
2013-08-23 03:50:00,68.3,63.9,29.80,SSW,201,6.0,15.0,86,0.00,,,0.00,Wunderground v.1.15,2013-08-23 06:50:00,
2013-08-23 03:55:00,68.3,63.6,29.82,South,184,6.0,15.0,85,0.00,,,0.00,Wunderground v.1.15,2013-08-23 06:55:00,
2013-08-23 04:00:00,68.2,63.5,29.82,South,179,5.0,15.0,85,0.00,,,0.00,Wunderground v.1.15,2013-08-23 07:00:00,
2013-08-23 04:05:00,68.2,63.5,29.82,SSE,162,5.0,15.0,85,0.00,,,0.00,Wunderground v.1.15,2013-08-23 07:05:00,
2013-08-23 04:10:00,68.1,63.4,29.79,SW,218,5.0,15.0,85,0.00,,,0.00,Wunderground v.1.15,2013-08-23 07:10:00,
2013-08-23 04:15:00,68.0,63.3,29.81,SSW,198,4.0,15.0,85,0.00,,,0.00,Wunderground v.1.15,2013-08-23 07:15:00,
2013-08-23 04:25:00,68.0,63.3,29.81,SSE,167,5.0,15.0,85,0.00,,,0.00,Wunderground v.1.15,2013-08-23 07:25:00,
2013-08-23 04:30:00,68.0,63.3,29.78,SSE,150,4.0,15.0,85,0.00,,,0.00,Wunderground v.1.15,2013-08-23 07:30:00,
2013-08-23 04:35:00,67.9,63.2,29.80,South,173,4.0,15.0,85,0.00,,,0.00,Wunderground v.1.15,2013-08-23 07:35:00,
2013-08-23 04:40:00,67.9,63.2,29.80,SSW,201,4.0,15.0,85,0.00,,,0.00,Wunderground v.1.15,2013-08-23 07:40:00,
2013-08-23 04:45:00,67.7,63.4,29.80,South,188,4.0,15.0,86,0.00,,,0.00,Wunderground v.1.15,2013-08-23 07:45:00,
2013-08-23 04:55:00,67.5,63.2,29.79,SSW,207,5.0,15.0,86,0.00,,,0.00,Wunderground v.1.15,2013-08-23 07:55:00,
2013-08-23 05:00:00,67.5,63.2,29.79,SSE,166,5.0,15.0,86,0.00,,,0.00,Wunderground v.1.15,2013-08-23 08:00:00,
2013-08-23 05:05:00,67.5,63.2,29.79,SSE,167,6.0,15.0,86,0.00,,,0.00,Wunderground v.1.15,2013-08-23 08:05:00,
2013-08-23 05:10:00,67.5,63.2,29.76,South,180,7.0,7.0,86,0.00,,,0.00,Wunderground v.1.15,2013-08-23 08:10:00,
2013-08-23 05:15:00,67.5,63.2,29.79,SE,146,6.0,8.0,86,0.00,,,0.00,Wunderground v.1.15,2013-08-23 08:15:00,
2013-08-23 05:20:00,67.6,63.3,29.79,SW,216,6.0,15.0,86,0.00,,,0.00,Wunderground v.1.15,2013-08-23 08:20:00,
2013-08-23 05:30:00,67.5,63.5,29.77,SSE,167,7.0,7.0,87,0.00,,,0.00,Wunderground v.1.15,2013-08-23 08:30:00,
2013-08-23 05:35:00,67.5,63.5,29.79,SSW,207,6.0,15.0,87,0.00,,,0.00,Wunderground v.1.15,2013-08-23 08:35:00,
2013-08-23 05:40:00,67.6,63.6,29.79,SW,214,7.0,15.0,87,0.00,,,0.00,Wunderground v.1.15,2013-08-23 08:40:00,
2013-08-23 05:45:00,67.8,63.8,29.79,South,187,7.0,15.0,87,0.00,,,0.00,Wunderground v.1.15,2013-08-23 08:45:00,
2013-08-23 05:50:00,68.0,64.3,29.76,SE,146,8.0,15.0,88,0.00,,,0.00,Wunderground v.1.15,2013-08-23 08:50:00,
2013-08-23 06:00:00,68.1,64.4,29.79,SE,140,8.0,15.0,88,0.00,,,0.00,Wunderground v.1.15,2013-08-23 09:00:00,
2013-08-23 06:05:00,68.0,64.3,29.79,SSW,202,7.0,15.0,88,0.00,,,0.00,Wunderground v.1.15,2013-08-23 09:05:00,
2013-08-23 06:10:00,68.2,64.5,29.81,SW,221,7.0,7.0,88,0.00,,,0.00,Wunderground v.1.15,2013-08-23 09:10:00,
2013-08-23 06:15:00,68.3,64.6,29.82,SSW,195,5.0,15.0,88,0.00,,,0.00,Wunderground v.1.15,2013-08-23 09:15:00,
2013-08-23 06:20:00,68.3,64.6,29.82,SSE,159,2.0,2.0,88,0.00,,,0.00,Wunderground v.1.15,2013-08-23 09:20:00,
2013-08-23 06:25:00,68.3,64.6,29.82,SSW,205,2.0,3.0,88,0.00,,,0.00,Wunderground v.1.15,2013-08-23 09:25:00,
2013-08-23 06:30:00,68.4,65.0,29.82,SW,215,4.0,4.0,89,0.00,,,0.00,Wunderground v.1.15,2013-08-23 09:30:00,
2013-08-23 06:40:00,68.5,65.1,29.82,SSE,164,5.0,5.0,89,0.00,,,0.00,Wunderground v.1.15,2013-08-23 09:40:00,
2013-08-23 06:45:00,68.4,65.4,29.80,SSW,194,4.0,15.0,90,0.00,,,0.00,Wunderground v.1.15,2013-08-23 09:45:00,
2013-08-23 06:50:00,68.2,65.2,29.82,SSW,200,4.0,4.0,90,0.00,,,0.00,Wunderground v.1.15,2013-08-23 09:50:00,
2013-08-23 06:55:00,68.1,65.4,29.83,WSW,239,4.0,6.0,91,0.00,,,0.00,Wunderground v.1.15,2013-08-23 09:55:00,
2013-08-23 07:00:00,67.8,65.1,29.82,SW,235,4.0,15.0,91,0.00,,,0.00,Wunderground v.1.15,2013-08-23 10:00:00,
2013-08-23 07:05:00,67.6,65.2,29.80,SSW,203,4.0,15.0,92,0.00,,,0.00,Wunderground v.1.15,2013-08-23 10:05:00,
2013-08-23 07:10:00,67.2,64.8,29.83,SW,224,3.0,3.0,92,0.00,,,0.00,Wunderground v.1.15,2013-08-23 10:10:00,
2013-08-23 07:15:00,66.9,64.5,29.83,WSW,257,1.0,15.0,92,0.00,,,0.01,Wunderground v.1.15,2013-08-23 10:15:00,
2013-08-23 07:20:00,65.7,63.0,29.83,NW,309,1.0,1.0,91,0.00,,,0.01,Wunderground v.1.15,2013-08-23 10:20:00,
2013-08-23 07:25:00,65.1,62.4,29.83,SW,218,1.0,15.0,91,0.00,,,0.01,Wunderground v.1.15,2013-08-23 10:25:00,
2013-08-23 07:35:00,64.2,61.8,29.83,East,89,0.0,15.0,92,0.00,,,0.01,Wunderground v.1.15,2013-08-23 10:35:00,
2013-08-23 07:40:00,64.1,61.7,29.83,East,89,0.0,15.0,92,0.00,,,0.01,Wunderground v.1.15,2013-08-23 10:40:00,
2013-08-23 07:45:00,64.0,61.9,29.84,SW,221,0.0,15.0,93,0.00,,,0.01,Wunderground v.1.15,2013-08-23 10:45:00,
2013-08-23 07:50:00,63.9,61.8,29.83,SSW,207,0.0,15.0,93,0.00,,,0.01,Wunderground v.1.15,2013-08-23 10:50:00,
2013-08-23 07:55:00,64.0,61.9,29.83,South,169,0.0,15.0,93,0.00,,,0.01,Wunderground v.1.15,2013-08-23 10:55:00,
2013-08-23 08:00:00,63.9,61.8,29.84,ESE,116,0.0,15.0,93,0.00,,,0.01,Wunderground v.1.15,2013-08-23 11:00:00,
2013-08-23 08:10:00,63.7,61.6,29.85,NNE,20,0.0,15.0,93,0.00,,,0.01,Wunderground v.1.15,2013-08-23 11:10:00,
2013-08-23 08:15:00,63.7,61.6,29.85,NE,53,0.0,15.0,93,0.00,,,0.01,Wunderground v.1.15,2013-08-23 11:15:00,
2013-08-23 08:20:00,63.7,61.6,29.85,East,93,0.0,15.0,93,0.00,,,0.01,Wunderground v.1.15,2013-08-23 11:20:00,
2013-08-23 08:25:00,63.7,61.6,29.85,West,272,0.0,15.0,93,0.00,,,0.01,Wunderground v.1.15,2013-08-23 11:25:00,
2013-08-23 08:30:00,63.7,61.6,29.85,WSW,249,0.0,15.0,93,0.00,,,0.01,Wunderground v.1.15,2013-08-23 11:30:00,
2013-08-23 08:40:00,64.0,61.6,29.85,West,266,1.0,1.0,92,0.00,,,0.01,Wunderground v.1.15,2013-08-23 11:40:00,
2013-08-23 08:45:00,64.1,61.7,29.85,ENE,72,0.0,15.0,92,0.00,,,0.01,Wunderground v.1.15,2013-08-23 11:45:00,
2013-08-23 08:50:00,64.0,61.3,29.85,North,4,0.0,15.0,91,0.00,,,0.01,Wunderground v.1.15,2013-08-23 11:50:00,
2013-08-23 08:55:00,63.9,61.2,29.85,NW,309,0.0,15.0,91,0.00,,,0.01,Wunderground v.1.15,2013-08-23 11:55:00,
2013-08-23 09:00:00,63.9,61.2,29.83,NW,307,0.0,15.0,91,0.00,,,0.01,Wunderground v.1.15,2013-08-23 12:00:00,
2013-08-23 09:05:00,63.9,60.9,29.86,NW,316,0.0,15.0,90,0.00,,,0.01,Wunderground v.1.15,2013-08-23 12:05:00,
2013-08-23 09:15:00,63.8,61.1,29.86,NNE,13,0.0,15.0,91,0.00,,,0.01,Wunderground v.1.15,2013-08-23 12:15:00,
2013-08-23 09:20:00,63.7,61.0,29.87,WSW,246,0.0,15.0,91,0.00,,,0.01,Wunderground v.1.15,2013-08-23 12:20:00,
2013-08-23 09:25:00,63.8,61.1,29.88,NW,312,0.0,15.0,91,0.00,,,0.01,Wunderground v.1.15,2013-08-23 12:25:00,
2013-08-23 09:30:00,63.8,61.1,29.88,ESE,109,0.0,15.0,91,0.00,,,0.01,Wunderground v.1.15,2013-08-23 12:30:00,
2013-08-23 09:35:00,63.7,60.7,29.88,ENE,67,1.0,15.0,90,0.00,,,0.01,Wunderground v.1.15,2013-08-23 12:35:00,
2013-08-23 09:45:00,63.6,60.6,29.88,West,273,0.0,15.0,90,0.00,,,0.01,Wunderground v.1.15,2013-08-23 12:45:00,
2013-08-23 09:50:00,63.5,60.5,29.86,SSE,152,1.0,1.0,90,0.00,,,0.01,Wunderground v.1.15,2013-08-23 12:50:00,
2013-08-23 09:55:00,63.5,60.5,29.89,WNW,293,0.0,15.0,90,0.00,,,0.01,Wunderground v.1.15,2013-08-23 12:55:00,
2013-08-23 10:00:00,63.4,60.7,29.90,WSW,243,0.0,15.0,91,0.00,,,0.01,Wunderground v.1.15,2013-08-23 13:00:00,
2013-08-23 10:05:00,63.3,60.6,29.90,NW,310,1.0,15.0,91,0.00,,,0.01,Wunderground v.1.15,2013-08-23 13:05:00,
2013-08-23 10:10:00,63.2,60.2,29.90,West,269,1.0,1.0,90,0.00,,,0.01,Wunderground v.1.15,2013-08-23 13:10:00,
2013-08-23 10:15:00,63.0,60.3,29.91,SSW,200,1.0,15.0,91,0.00,,,0.01,Wunderground v.1.15,2013-08-23 13:15:00,
2013-08-23 10:20:00,62.9,60.2,29.91,NW,316,0.0,15.0,91,0.00,,,0.01,Wunderground v.1.15,2013-08-23 13:20:00,
2013-08-23 10:25:00,62.9,60.2,29.91,WNW,287,0.0,15.0,91,0.00,,,0.01,Wunderground v.1.15,2013-08-23 13:25:00,
2013-08-23 10:30:00,63.1,60.4,29.91,WNW,284,0.0,15.0,91,0.00,,,0.01,Wunderground v.1.15,2013-08-23 13:30:00,
2013-08-23 10:35:00,63.1,60.4,29.91,West,280,0.0,15.0,91,0.00,,,0.01,Wunderground v.1.15,2013-08-23 13:35:00,
2013-08-23 10:40:00,63.1,60.1,29.92,NNW,330,1.0,1.0,90,0.00,,,0.01,Wunderground v.1.15,2013-08-23 13:40:00,
2013-08-23 10:50:00,63.0,59.7,29.92,WNW,290,1.0,15.0,89,0.00,,,0.01,Wunderground v.1.15,2013-08-23 13:50:00,
2013-08-23 10:55:00,63.3,60.3,29.92,WNW,302,1.0,15.0,90,0.00,,,0.01,Wunderground v.1.15,2013-08-23 13:55:00,
2013-08-23 11:00:00,63.6,60.3,29.92,ENE,60,0.0,15.0,89,0.00,,,0.01,Wunderground v.1.15,2013-08-23 14:00:00,
2013-08-23 11:05:00,63.8,60.5,29.92,WNW,284,1.0,15.0,89,0.00,,,0.01,Wunderground v.1.15,2013-08-23 14:05:00,
2013-08-23 11:10:00,64.0,60.4,29.92,NW,308,1.0,15.0,88,0.00,,,0.01,Wunderground v.1.15,2013-08-23 14:10:00,
2013-08-23 11:20:00,64.1,60.2,29.93,SE,125,1.0,15.0,87,0.00,,,0.01,Wunderground v.1.15,2013-08-23 14:20:00,
2013-08-23 11:25:00,64.3,60.3,29.90,NNW,333,1.0,15.0,87,0.00,,,0.01,Wunderground v.1.15,2013-08-23 14:25:00,
2013-08-23 11:30:00,64.7,60.7,29.93,SW,218,1.0,1.0,87,0.00,,,0.01,Wunderground v.1.15,2013-08-23 14:30:00,
2013-08-23 11:35:00,64.8,60.5,29.93,NW,315,1.0,2.0,86,0.00,,,0.01,Wunderground v.1.15,2013-08-23 14:35:00,
2013-08-23 11:40:00,64.8,60.2,29.94,WSW,240,1.0,15.0,85,0.00,,,0.01,Wunderground v.1.15,2013-08-23 14:40:00,
2013-08-23 11:45:00,65.1,60.8,29.91,WSW,240,1.0,15.0,86,0.00,,,0.01,Wunderground v.1.15,2013-08-23 14:45:00,
2013-08-23 11:55:00,65.9,60.9,29.94,North,4,1.0,15.0,84,0.00,,,0.01,Wunderground v.1.15,2013-08-23 14:55:00,
2013-08-23 12:00:00,66.1,61.1,29.94,North,360,1.0,1.0,84,0.00,,,0.01,Wunderground v.1.15,2013-08-23 15:00:00,
2013-08-23 12:05:00,66.0,60.7,29.95,North,350,1.0,15.0,83,0.00,,,0.01,Wunderground v.1.15,2013-08-23 15:05:00,
2013-08-23 12:10:00,65.6,60.3,29.95,WNW,297,1.0,15.0,83,0.00,,,0.01,Wunderground v.1.15,2013-08-23 15:10:00,
2013-08-23 12:15:00,65.8,61.2,29.95,ENE,65,1.0,15.0,85,0.00,,,0.01,Wunderground v.1.15,2013-08-23 15:15:00,
2013-08-23 12:25:00,66.2,60.9,29.96,ENE,68,2.0,15.0,83,0.00,,,0.01,Wunderground v.1.15,2013-08-23 15:25:00,
2013-08-23 12:30:00,66.6,60.9,29.95,WNW,291,2.0,15.0,82,0.00,,,0.01,Wunderground v.1.15,2013-08-23 15:30:00,
2013-08-23 12:35:00,67.0,61.0,29.96,NW,326,2.0,15.0,81,0.00,,,0.01,Wunderground v.1.15,2013-08-23 15:35:00,
2013-08-23 12:40:00,67.2,60.8,29.95,West,274,1.0,15.0,80,0.00,,,0.01,Wunderground v.1.15,2013-08-23 15:40:00,
2013-08-23 12:45:00,67.8,61.4,29.93,NNW,330,1.0,15.0,80,0.00,,,0.01,Wunderground v.1.15,2013-08-23 15:45:00,
2013-08-23 12:50:00,68.6,61.8,29.96,WNW,303,1.0,15.0,79,0.00,,,0.01,Wunderground v.1.15,2013-08-23 15:50:00,
2013-08-23 13:00:00,68.8,62.0,29.97,NNW,333,2.0,2.0,79,0.00,,,0.01,Wunderground v.1.15,2013-08-23 16:00:00,
2013-08-23 13:05:00,69.0,61.5,29.97,NNE,23,1.0,15.0,77,0.00,,,0.01,Wunderground v.1.15,2013-08-23 16:05:00,
2013-08-23 13:10:00,68.8,61.7,29.94,West,259,1.0,15.0,78,0.00,,,0.01,Wunderground v.1.15,2013-08-23 16:10:00,
2013-08-23 13:15:00,68.5,61.7,29.97,NNE,25,1.0,15.0,79,0.00,,,0.01,Wunderground v.1.15,2013-08-23 16:15:00,
2013-08-23 13:20:00,68.0,61.2,29.97,NNW,327,1.0,15.0,79,0.00,,,0.01,Wunderground v.1.15,2013-08-23 16:20:00,
2013-08-23 13:25:00,67.5,60.8,29.98,SW,232,1.0,15.0,79,0.00,,,0.01,Wunderground v.1.15,2013-08-23 16:25:00,
2013-08-23 13:30:00,67.8,61.8,29.97,WNW,287,1.0,15.0,81,0.00,,,0.01,Wunderground v.1.15,2013-08-23 16:30:00,
2013-08-23 13:40:00,66.7,60.3,29.98,ENE,75,1.0,15.0,80,0.00,,,0.01,Wunderground v.1.15,2013-08-23 16:40:00,
2013-08-23 13:45:00,65.9,59.9,29.98,WNW,295,1.0,15.0,81,0.00,,,0.01,Wunderground v.1.15,2013-08-23 16:45:00,
2013-08-23 13:50:00,65.5,59.9,29.95,NNW,332,1.0,15.0,82,0.00,,,0.01,Wunderground v.1.15,2013-08-23 16:50:00,
2013-08-23 13:55:00,65.9,60.2,29.98,West,273,1.0,15.0,82,0.00,,,0.01,Wunderground v.1.15,2013-08-23 16:55:00,
2013-08-23 14:00:00,66.2,60.2,29.99,WNW,302,1.0,15.0,81,0.00,,,0.01,Wunderground v.1.15,2013-08-23 17:00:00,
2013-08-23 14:05:00,65.9,60.2,29.99,WNW,300,1.0,15.0,82,0.00,,,0.01,Wunderground v.1.15,2013-08-23 17:05:00,
2013-08-23 14:10:00,65.3,59.7,29.99,West,263,2.0,2.0,82,0.00,,,0.01,Wunderground v.1.15,2013-08-23 17:10:00,
2013-08-23 14:15:00,64.8,59.2,29.99,NW,318,2.0,15.0,82,0.00,,,0.01,Wunderground v.1.15,2013-08-23 17:15:00,
2013-08-23 14:20:00,64.4,59.1,30.00,WNW,296,1.0,15.0,83,0.00,,,0.01,Wunderground v.1.15,2013-08-23 17:20:00,
2013-08-23 14:25:00,64.2,59.3,30.00,North,356,1.0,15.0,84,0.00,,,0.01,Wunderground v.1.15,2013-08-23 17:25:00,
2013-08-23 14:35:00,64.1,58.8,29.97,West,281,2.0,15.0,83,0.00,,,0.01,Wunderground v.1.15,2013-08-23 17:35:00,
2013-08-23 14:40:00,64.5,59.2,30.00,WNW,293,2.0,2.0,83,0.00,,,0.01,Wunderground v.1.15,2013-08-23 17:40:00,
2013-08-23 14:45:00,64.9,59.3,30.00,WNW,294,2.0,15.0,82,0.00,,,0.01,Wunderground v.1.15,2013-08-23 17:45:00,
2013-08-23 14:50:00,65.0,59.0,29.98,NNW,347,2.0,2.0,81,0.00,,,0.01,Wunderground v.1.15,2013-08-23 17:50:00,
2013-08-23 14:55:00,64.9,58.9,30.00,WNW,301,1.0,15.0,81,0.00,,,0.01,Wunderground v.1.15,2013-08-23 17:55:00,
2013-08-23 15:05:00,64.2,58.6,29.98,NNW,333,2.0,15.0,82,0.00,,,0.01,Wunderground v.1.15,2013-08-23 18:05:00,
2013-08-23 15:10:00,64.2,58.9,30.01,WNW,290,2.0,15.0,83,0.00,,,0.01,Wunderground v.1.15,2013-08-23 18:10:00,
2013-08-23 15:15:00,64.2,58.9,30.01,North,354,2.0,15.0,83,0.00,,,0.01,Wunderground v.1.15,2013-08-23 18:15:00,
2013-08-23 15:20:00,64.1,58.5,30.01,ESE,113,2.0,2.0,82,0.00,,,0.01,Wunderground v.1.15,2013-08-23 18:20:00,
2013-08-23 15:25:00,63.9,58.3,30.01,NW,305,2.0,15.0,82,0.00,,,0.01,Wunderground v.1.15,2013-08-23 18:25:00,
2013-08-23 15:30:00,63.8,58.5,30.01,NW,326,1.0,15.0,83,0.00,,,0.01,Wunderground v.1.15,2013-08-23 18:30:00,
2013-08-23 15:40:00,64.2,58.9,29.99,WNW,298,1.0,15.0,83,0.00,,,0.01,Wunderground v.1.15,2013-08-23 18:40:00,
2013-08-23 15:45:00,64.3,59.0,30.02,WNW,288,1.0,15.0,83,0.00,,,0.01,Wunderground v.1.15,2013-08-23 18:45:00,
2013-08-23 15:50:00,64.4,59.1,30.02,NW,311,2.0,2.0,83,0.00,,,0.01,Wunderground v.1.15,2013-08-23 18:50:00,
2013-08-23 15:55:00,64.9,58.6,30.00,WNW,285,2.0,15.0,80,0.00,,,0.01,Wunderground v.1.15,2013-08-23 18:55:00,
2013-08-23 16:00:00,65.0,58.7,30.03,WNW,288,2.0,15.0,80,0.00,,,0.01,Wunderground v.1.15,2013-08-23 19:00:00,
2013-08-23 16:10:00,65.1,58.8,30.00,NW,323,2.0,15.0,80,0.00,,,0.01,Wunderground v.1.15,2013-08-23 19:10:00,
2013-08-23 16:15:00,65.0,58.3,30.03,NE,37,2.0,15.0,79,0.00,,,0.01,Wunderground v.1.15,2013-08-23 19:15:00,
2013-08-23 16:20:00,64.9,58.2,30.03,NW,307,2.0,2.0,79,0.00,,,0.01,Wunderground v.1.15,2013-08-23 19:20:00,
2013-08-23 16:25:00,64.8,58.8,30.00,NW,305,2.0,15.0,81,0.00,,,0.01,Wunderground v.1.15,2013-08-23 19:25:00,
2013-08-23 16:30:00,64.5,58.2,30.03,NW,323,2.0,15.0,80,0.00,,,0.01,Wunderground v.1.15,2013-08-23 19:30:00,
2013-08-23 16:35:00,64.5,58.5,30.03,NW,314,2.0,15.0,81,0.00,,,0.01,Wunderground v.1.15,2013-08-23 19:35:00,
2013-08-23 16:45:00,64.5,58.5,30.03,NW,314,2.0,15.0,81,0.00,,,0.01,Wunderground v.1.15,2013-08-23 19:45:00,
2013-08-23 16:50:00,64.5,58.5,30.03,WNW,294,2.0,2.0,81,0.00,,,0.01,Wunderground v.1.15,2013-08-23 19:50:00,
2013-08-23 16:55:00,65.2,59.6,30.03,West,266,1.0,4.0,82,0.00,,,0.01,Wunderground v.1.15,2013-08-23 19:55:00,
2013-08-23 17:00:00,65.4,59.1,30.03,North,349,1.0,15.0,80,0.00,,,0.01,Wunderground v.1.15,2013-08-23 20:00:00,
2013-08-23 17:05:00,65.6,59.3,30.03,WNW,298,2.0,15.0,80,0.00,,,0.01,Wunderground v.1.15,2013-08-23 20:05:00,
2013-08-23 17:10:00,65.8,59.1,30.04,WSW,256,1.0,15.0,79,0.00,,,0.01,Wunderground v.1.15,2013-08-23 20:10:00,
2013-08-23 17:15:00,65.7,59.0,30.03,West,281,1.0,15.0,79,0.00,,,0.01,Wunderground v.1.15,2013-08-23 20:15:00,
2013-08-23 17:20:00,65.9,59.2,30.04,SW,218,1.0,15.0,79,0.00,,,0.01,Wunderground v.1.15,2013-08-23 20:20:00,
2013-08-23 17:25:00,66.1,59.0,30.04,NW,321,1.0,15.0,78,0.00,,,0.01,Wunderground v.1.15,2013-08-23 20:25:00,
2013-08-23 17:30:00,65.9,59.2,30.04,NW,323,1.0,15.0,79,0.00,,,0.01,Wunderground v.1.15,2013-08-23 20:30:00,
2013-08-23 17:35:00,65.2,58.5,30.04,NW,310,2.0,15.0,79,0.00,,,0.01,Wunderground v.1.15,2013-08-23 20:35:00,
2013-08-23 17:45:00,64.3,58.0,30.04,NW,310,1.0,15.0,80,0.00,,,0.01,Wunderground v.1.15,2013-08-23 20:45:00,
2013-08-23 17:50:00,63.9,58.0,30.05,WNW,295,1.0,15.0,81,0.00,,,0.01,Wunderground v.1.15,2013-08-23 20:50:00,
2013-08-23 17:55:00,63.9,57.6,30.05,WNW,296,2.0,15.0,80,0.00,,,0.01,Wunderground v.1.15,2013-08-23 20:55:00,
2013-08-23 18:00:00,64.2,57.5,30.03,SSW,211,2.0,2.0,79,0.00,,,0.01,Wunderground v.1.15,2013-08-23 21:00:00,
2013-08-23 18:05:00,63.9,56.9,30.05,WSW,249,1.0,15.0,78,0.00,,,0.01,Wunderground v.1.15,2013-08-23 21:05:00,
2013-08-23 18:10:00,63.5,56.9,30.06,NW,316,1.0,1.0,79,0.00,,,0.01,Wunderground v.1.15,2013-08-23 21:10:00,
2013-08-23 18:20:00,63.1,56.5,30.03,WNW,288,1.0,15.0,79,0.00,,,0.01,Wunderground v.1.15,2013-08-23 21:20:00,
2013-08-23 18:25:00,63.0,56.7,30.07,NW,307,1.0,15.0,80,0.00,,,0.01,Wunderground v.1.15,2013-08-23 21:25:00,
2013-08-23 18:30:00,63.1,56.8,30.06,NNE,12,1.0,1.0,80,0.00,,,0.01,Wunderground v.1.15,2013-08-23 21:30:00,
2013-08-23 18:35:00,63.2,56.9,30.07,SW,222,0.0,15.0,80,0.00,,,0.01,Wunderground v.1.15,2013-08-23 21:35:00,
2013-08-23 18:40:00,63.4,56.8,30.07,WNW,302,0.0,15.0,79,0.00,,,0.01,Wunderground v.1.15,2013-08-23 21:40:00,
2013-08-23 18:50:00,64.1,56.7,30.07,NW,305,1.0,15.0,77,0.00,,,0.01,Wunderground v.1.15,2013-08-23 21:50:00,
2013-08-23 18:55:00,63.9,56.2,30.07,NW,323,1.0,15.0,76,0.00,,,0.01,Wunderground v.1.15,2013-08-23 21:55:00,
2013-08-23 19:00:00,63.4,55.7,30.07,WSW,245,1.0,15.0,76,0.00,,,0.01,Wunderground v.1.15,2013-08-23 22:00:00,
2013-08-23 19:05:00,63.0,55.7,30.08,WNW,283,1.0,15.0,77,0.00,,,0.01,Wunderground v.1.15,2013-08-23 22:05:00,
2013-08-23 19:10:00,62.7,55.4,30.08,NW,307,1.0,15.0,77,0.00,,,0.01,Wunderground v.1.15,2013-08-23 22:10:00,
2013-08-23 19:15:00,62.6,55.6,30.08,West,264,1.0,15.0,78,0.00,,,0.01,Wunderground v.1.15,2013-08-23 22:15:00,
2013-08-23 19:25:00,62.4,54.7,30.08,WNW,290,1.0,15.0,76,0.00,,,0.01,Wunderground v.1.15,2013-08-23 22:25:00,
2013-08-23 19:30:00,62.4,54.4,30.08,WNW,302,1.0,1.0,75,0.00,,,0.01,Wunderground v.1.15,2013-08-23 22:30:00,
2013-08-23 19:35:00,62.5,54.8,30.08,NW,324,1.0,15.0,76,0.00,,,0.01,Wunderground v.1.15,2013-08-23 22:35:00,
2013-08-23 19:40:00,62.4,54.7,30.06,WNW,291,1.0,15.0,76,0.00,,,0.01,Wunderground v.1.15,2013-08-23 22:40:00,
2013-08-23 19:45:00,62.3,54.3,30.09,WNW,302,1.0,15.0,75,0.00,,,0.01,Wunderground v.1.15,2013-08-23 22:45:00,
2013-08-23 19:55:00,62.2,54.5,30.10,North,9,1.0,15.0,76,0.00,,,0.01,Wunderground v.1.15,2013-08-23 22:55:00,
2013-08-23 20:00:00,62.1,54.1,30.10,West,263,1.0,15.0,75,0.00,,,0.01,Wunderground v.1.15,2013-08-23 23:00:00,
2013-08-23 20:05:00,62.0,53.6,30.10,West,261,1.0,15.0,74,0.00,,,0.01,Wunderground v.1.15,2013-08-23 23:05:00,
2013-08-23 20:10:00,62.0,54.0,30.10,WSW,256,1.0,15.0,75,0.00,,,0.01,Wunderground v.1.15,2013-08-23 23:10:00,
2013-08-23 20:15:00,61.9,54.2,30.10,West,276,1.0,15.0,76,0.00,,,0.01,Wunderground v.1.15,2013-08-23 23:15:00,
2013-08-23 20:20:00,62.0,54.3,30.10,WNW,302,1.0,15.0,76,0.00,,,0.01,Wunderground v.1.15,2013-08-23 23:20:00,
2013-08-23 20:25:00,62.1,54.8,30.10,WNW,297,1.0,15.0,77,0.00,,,0.01,Wunderground v.1.15,2013-08-23 23:25:00,
2013-08-23 20:30:00,62.1,54.4,30.11,WNW,297,1.0,1.0,76,0.00,,,0.01,Wunderground v.1.15,2013-08-23 23:30:00,
2013-08-23 20:35:00,62.0,54.3,30.11,West,274,1.0,15.0,76,0.00,,,0.01,Wunderground v.1.15,2013-08-23 23:35:00,
2013-08-23 20:45:00,62.0,55.1,30.11,NW,305,0.0,15.0,78,0.00,,,0.01,Wunderground v.1.15,2013-08-23 23:45:00,
2013-08-23 20:50:00,62.0,54.7,30.11,West,278,1.0,15.0,77,0.00,,,0.01,Wunderground v.1.15,2013-08-23 23:50:00,
2013-08-23 20:55:00,62.0,54.7,30.11,NNW,327,1.0,15.0,77,0.00,,,0.01,Wunderground v.1.15,2013-08-23 23:55:00,
2013-08-23 21:00:00,62.1,54.8,30.12,NW,316,1.0,1.0,77,0.00,,,0.01,Wunderground v.1.15,2013-08-24 00:00:00,
2013-08-23 21:05:00,62.0,54.7,30.12,West,271,1.0,15.0,77,0.00,,,0.01,Wunderground v.1.15,2013-08-24 00:05:00,
2013-08-23 21:10:00,61.9,54.6,30.13,WNW,287,1.0,1.0,77,0.00,,,0.01,Wunderground v.1.15,2013-08-24 00:10:00,
2013-08-23 21:15:00,61.9,54.2,30.13,West,276,1.0,15.0,76,0.00,,,0.01,Wunderground v.1.15,2013-08-24 00:15:00,
2013-08-23 21:20:00,61.7,54.4,30.10,NW,311,1.0,1.0,77,0.00,,,0.01,Wunderground v.1.15,2013-08-24 00:20:00,
2013-08-23 21:30:00,61.5,53.9,30.14,WSW,248,0.0,15.0,76,0.00,,,0.01,Wunderground v.1.15,2013-08-24 00:30:00,
2013-08-23 21:35:00,61.4,54.1,30.14,NW,307,0.0,15.0,77,0.00,,,0.01,Wunderground v.1.15,2013-08-24 00:35:00,
2013-08-23 21:40:00,61.1,53.8,30.14,WNW,282,0.0,15.0,77,0.00,,,0.01,Wunderground v.1.15,2013-08-24 00:40:00,
2013-08-23 21:45:00,60.8,53.9,30.14,WNW,283,0.0,15.0,78,0.00,,,0.01,Wunderground v.1.15,2013-08-24 00:45:00,
2013-08-23 21:50:00,60.5,54.0,30.14,NW,322,0.0,15.0,79,0.00,,,0.01,Wunderground v.1.15,2013-08-24 00:50:00,
2013-08-23 21:55:00,60.1,53.9,30.15,NW,320,0.0,15.0,80,0.00,,,0.01,Wunderground v.1.15,2013-08-24 00:55:00,
2013-08-23 22:05:00,59.3,53.5,30.15,NW,321,0.0,15.0,81,0.00,,,0.01,Wunderground v.1.15,2013-08-24 01:05:00,
2013-08-23 22:10:00,59.0,53.5,30.15,NW,320,0.0,15.0,82,0.00,,,0.01,Wunderground v.1.15,2013-08-24 01:10:00,
2013-08-23 22:15:00,58.7,53.2,30.15,NW,321,0.0,15.0,82,0.00,,,0.01,Wunderground v.1.15,2013-08-24 01:15:00,
2013-08-23 22:20:00,58.4,53.3,30.15,NW,320,0.0,15.0,83,0.00,,,0.01,Wunderground v.1.15,2013-08-24 01:20:00,
2013-08-23 22:25:00,58.1,53.0,30.15,NW,320,0.0,15.0,83,0.00,,,0.01,Wunderground v.1.15,2013-08-24 01:25:00,
2013-08-23 22:35:00,57.6,52.8,30.15,NW,321,0.0,15.0,84,0.00,,,0.01,Wunderground v.1.15,2013-08-24 01:35:00,
2013-08-23 22:40:00,57.5,52.7,30.15,SW,229,0.0,15.0,84,0.00,,,0.01,Wunderground v.1.15,2013-08-24 01:40:00,
2013-08-23 22:45:00,57.3,52.5,30.15,SW,229,0.0,15.0,84,0.00,,,0.01,Wunderground v.1.15,2013-08-24 01:45:00,
2013-08-23 22:50:00,57.0,52.5,30.16,SW,229,0.0,15.0,85,0.00,,,0.01,Wunderground v.1.15,2013-08-24 01:50:00,
2013-08-23 22:55:00,56.7,52.2,30.16,SW,229,0.0,15.0,85,0.00,,,0.01,Wunderground v.1.15,2013-08-24 01:55:00,
2013-08-23 23:00:00,56.4,51.9,30.15,SW,229,0.0,15.0,85,0.00,,,0.01,Wunderground v.1.15,2013-08-24 02:00:00,
2013-08-23 23:10:00,55.9,51.8,30.15,SW,229,0.0,15.0,86,0.00,,,0.01,Wunderground v.1.15,2013-08-24 02:10:00,
2013-08-23 23:15:00,55.4,51.3,30.15,SW,229,0.0,15.0,86,0.00,,,0.01,Wunderground v.1.15,2013-08-24 02:15:00,
2013-08-23 23:20:00,54.7,50.6,30.15,SW,229,0.0,15.0,86,0.00,,,0.01,Wunderground v.1.15,2013-08-24 02:20:00,
2013-08-23 23:25:00,54.1,50.3,30.15,SW,229,0.0,15.0,87,0.00,,,0.01,Wunderground v.1.15,2013-08-24 02:25:00,
2013-08-23 23:30:00,53.6,50.1,30.16,SW,230,0.0,15.0,88,0.00,,,0.01,Wunderground v.1.15,2013-08-24 02:30:00,
2013-08-23 23:40:00,53.2,50.3,30.16,SW,229,0.0,15.0,90,0.00,,,0.01,Wunderground v.1.15,2013-08-24 02:40:00,
2013-08-23 23:45:00,53.5,51.2,30.16,SW,229,0.0,15.0,92,0.00,,,0.01,Wunderground v.1.15,2013-08-24 02:45:00,
2013-08-23 23:50:00,53.8,51.5,30.16,SW,229,0.0,15.0,92,0.00,,,0.01,Wunderground v.1.15,2013-08-24 02:50:00,
2013-08-23 23:55:00,54.0,51.4,30.16,SW,229,0.0,15.0,91,0.00,,,0.01,Wunderground v.1.15,2013-08-24 02:55:00,